User: anonymous   Login
Location: Larrial
(48.2758°N, 4.5331°W)
Time: 17:42:15
(UTC+00:00)
Language:

Cosmos 2218 Rocket - Orbit

View from above orbital plane
View from above orbital plane
View from above satellite
View from above satellite

Ground track
Ground track

The orbit data is extracted from the following two-line orbital elements,

1 22208U 92073B   20195.51391758 +.00000018 +00000-0 +29313-5 0  9993
2 22208 082.9184 268.3529 0035184 145.8175 226.4182 13.75156866389996
Epoch (UTC): 13 July 2020 12:20:02
Eccentricity: 0.0035184
inclination: 82.9184°
perigee height: 955 km
apogee height: 1007 km
right ascension of ascending node: 268.3529°
argument of perigee: 145.8175°
revolutions per day: 13.75156866
mean anomaly at epoch: 226.4182°
orbit number at epoch: 38999

The dashed part of the orbit path shows where the satellite is in the earth's shadow,  

DLR